TimeAKST,TemperatureF,Dew PointF,Humidity,Sea Level PressureIn,VisibilityMPH,Wind Direction,Wind SpeedMPH,Gust SpeedMPH,PrecipitationIn,Events,Conditions,WindDirDegrees,DateUTC
12:16 AM,-0.4,-11.2,60,29.53,10.0,South,16.1,19.6,N/A,,Overcast,180,2013-02-25 09:16:00
12:36 AM,-0.4,-11.2,60,29.54,10.0,South,13.8,-,N/A,,Overcast,190,2013-02-25 09:36:00
12:56 AM,-0.4,-11.2,60,29.54,10.0,South,15.0,-,N/A,,Overcast,180,2013-02-25 09:56:00
1:16 AM,-0.4,-11.2,60,29.55,10.0,South,16.1,-,N/A,,Overcast,190,2013-02-25 10:16:00
1:36 AM,-0.4,-11.2,60,29.55,10.0,South,13.8,-,N/A,,Overcast,180,2013-02-25 10:36:00
1:56 AM,1.4,-9.4,61,29.55,10.0,South,15.0,-,N/A,,Overcast,180,2013-02-25 10:56:00
2:16 AM,-0.4,-11.2,60,29.55,10.0,South,17.3,-,N/A,,Overcast,170,2013-02-25 11:16:00
2:36 AM,1.4,-9.4,61,29.56,10.0,South,17.3,-,N/A,,Overcast,170,2013-02-25 11:36:00
2:56 AM,1.4,-11.2,56,29.56,10.0,South,17.3,-,N/A,,Overcast,180,2013-02-25 11:56:00
3:16 AM,-0.4,-9.4,66,29.56,10.0,South,17.3,-,N/A,,Overcast,180,2013-02-25 12:16:00
3:36 AM,-0.4,-11.2,60,29.57,10.0,South,16.1,-,N/A,,Overcast,180,2013-02-25 12:36:00
3:56 AM,1.4,-5.8,72,29.57,10.0,South,17.3,23.0,N/A,,Overcast,180,2013-02-25 12:56:00
4:16 AM,1.4,-11.2,56,29.57,10.0,South,17.3,-,N/A,,Overcast,180,2013-02-25 13:16:00
4:36 AM,-0.4,-13.0,55,29.57,10.0,South,17.3,-,N/A,,Mostly Cloudy,170,2013-02-25 13:36:00
4:56 AM,1.4,-7.6,66,29.57,10.0,South,18.4,-,N/A,,Mostly Cloudy,170,2013-02-25 13:56:00
5:16 AM,1.4,-9.4,61,29.58,10.0,South,19.6,-,N/A,,Overcast,190,2013-02-25 14:16:00
5:36 AM,1.4,-9.4,61,29.58,10.0,South,15.0,-,N/A,,Overcast,180,2013-02-25 14:36:00
5:56 AM,3.2,-4.0,72,29.58,10.0,South,16.1,-,N/A,,Overcast,190,2013-02-25 14:56:00
6:16 AM,1.4,-9.4,61,29.58,10.0,South,16.1,-,N/A,,Overcast,180,2013-02-25 15:16:00
6:36 AM,3.2,-5.8,66,29.58,10.0,South,17.3,-,N/A,,Overcast,180,2013-02-25 15:36:00
6:56 AM,3.2,-5.8,66,29.58,10.0,South,17.3,-,N/A,,Overcast,180,2013-02-25 15:56:00
7:16 AM,3.2,-7.6,61,29.58,10.0,South,16.1,-,N/A,,Overcast,180,2013-02-25 16:16:00
7:36 AM,3.2,-7.6,61,29.58,10.0,South,17.3,-,N/A,,Overcast,180,2013-02-25 16:36:00
7:56 AM,3.2,-7.6,61,29.58,10.0,South,17.3,-,N/A,,Overcast,180,2013-02-25 16:56:00
8:16 AM,3.2,-2.2,78,29.59,10.0,South,16.1,-,N/A,,Overcast,180,2013-02-25 17:16:00
8:36 AM,3.2,-7.6,61,29.59,9.0,South,17.3,23.0,N/A,,Overcast,180,2013-02-25 17:36:00
8:56 AM,1.4,-11.2,56,29.60,10.0,South,15.0,-,N/A,,Overcast,180,2013-02-25 17:56:00
9:16 AM,3.2,-2.2,78,29.60,8.0,South,16.1,-,N/A,,Overcast,180,2013-02-25 18:16:00
9:36 AM,3.2,-9.4,56,29.61,10.0,South,9.2,-,N/A,,Overcast,170,2013-02-25 18:36:00
9:56 AM,3.2,-2.2,78,29.61,5.0,SSE,16.1,20.7,N/A,,Overcast,160,2013-02-25 18:56:00
10:16 AM,3.2,-4.0,72,29.61,4.0,SSW,16.1,-,N/A,,Overcast,200,2013-02-25 19:16:00
10:36 AM,5.0,-7.6,56,29.62,7.0,SSW,15.0,-,N/A,,Overcast,200,2013-02-25 19:36:00
10:56 AM,6.8,-7.6,52,29.62,10.0,SSW,10.4,-,N/A,,Overcast,210,2013-02-25 19:56:00
11:16 AM,5.0,-5.8,61,29.62,10.0,South,12.7,-,N/A,,Overcast,180,2013-02-25 20:16:00
11:36 AM,5.0,-0.4,78,29.63,10.0,South,13.8,-,N/A,,Overcast,180,2013-02-25 20:36:00
11:56 AM,5.0,-7.6,56,29.63,10.0,South,15.0,-,N/A,,Overcast,190,2013-02-25 20:56:00
12:16 PM,6.8,-5.8,56,29.64,10.0,South,15.0,-,N/A,,Overcast,170,2013-02-25 21:16:00
12:36 PM,6.8,-9999,N/A,29.65,10.0,SSE,15.0,20.7,N/A,,Overcast,160,2013-02-25 21:36:00
12:56 PM,6.8,-25.6,21,29.65,10.0,South,8.1,20.7,N/A,,Overcast,170,2013-02-25 21:56:00
1:16 PM,3.2,-23.8,28,29.65,10.0,South,16.1,-,N/A,,Overcast,170,2013-02-25 22:16:00
1:36 PM,5.0,-20.2,30,29.65,10.0,South,12.7,-,N/A,,Overcast,180,2013-02-25 22:36:00
1:56 PM,5.0,-20.2,30,29.65,10.0,South,12.7,-,N/A,,Overcast,190,2013-02-25 22:56:00
2:16 PM,6.8,-18.4,31,29.65,10.0,South,16.1,-,N/A,,Overcast,180,2013-02-25 23:16:00
2:36 PM,6.8,-16.6,34,29.66,10.0,South,13.8,-,N/A,,Overcast,170,2013-02-25 23:36:00
2:56 PM,6.8,-11.2,44,29.65,8.0,South,16.1,-,N/A,,Overcast,170,2013-02-25 23:56:00
3:16 PM,6.8,-11.2,44,29.66,10.0,South,16.1,-,N/A,,Overcast,180,2013-02-26 00:16:00
3:36 PM,6.8,-9.4,48,29.66,9.0,South,15.0,18.4,N/A,,Overcast,190,2013-02-26 00:36:00
3:56 PM,6.8,-9.4,48,29.66,10.0,South,18.4,-,N/A,,Overcast,180,2013-02-26 00:56:00
4:16 PM,6.8,-5.8,56,29.67,10.0,South,15.0,-,N/A,,Overcast,190,2013-02-26 01:16:00
4:56 PM,5.0,-5.8,61,29.67,10.0,South,12.7,-,N/A,,Scattered Clouds,180,2013-02-26 01:56:00
5:16 PM,5.0,-4.0,66,29.67,10.0,South,15.0,-,N/A,,Clear,190,2013-02-26 02:16:00
5:36 PM,5.0,-4.0,66,29.67,10.0,SSW,12.7,-,N/A,,Clear,200,2013-02-26 02:36:00
5:56 PM,5.0,-16.6,36,29.67,10.0,SSW,9.2,-,N/A,,Partly Cloudy,200,2013-02-26 02:56:00
6:16 PM,5.0,-25.6,23,29.68,10.0,South,12.7,-,N/A,,Scattered Clouds,190,2013-02-26 03:16:00
6:36 PM,6.8,-18.4,31,29.68,10.0,South,11.5,-,N/A,,Mostly Cloudy,170,2013-02-26 03:36:00
6:56 PM,6.8,-16.6,34,29.68,10.0,South,5.8,-,N/A,,Overcast,190,2013-02-26 03:56:00
7:16 PM,3.2,-18.4,36,29.68,10.0,SW,3.5,-,N/A,,Overcast,220,2013-02-26 04:16:00
7:36 PM,1.4,-16.6,43,29.69,10.0,South,3.5,-,N/A,,Overcast,170,2013-02-26 04:36:00
7:56 PM,3.2,-14.8,43,29.69,10.0,South,8.1,-,N/A,,Scattered Clouds,170,2013-02-26 04:56:00
8:16 PM,3.2,-11.2,51,29.70,10.0,South,13.8,-,N/A,,Mostly Cloudy,180,2013-02-26 05:16:00
8:36 PM,3.2,-9.4,56,29.70,10.0,South,13.8,-,N/A,,Mostly Cloudy,190,2013-02-26 05:36:00
8:56 PM,5.0,-7.6,56,29.70,10.0,South,13.8,-,N/A,,Mostly Cloudy,180,2013-02-26 05:56:00
9:16 PM,5.0,-7.6,56,29.70,10.0,South,12.7,-,N/A,,Mostly Cloudy,170,2013-02-26 06:16:00
9:36 PM,3.2,-4.0,72,29.71,10.0,SSW,12.7,-,N/A,,Mostly Cloudy,200,2013-02-26 06:36:00
9:56 PM,3.2,-5.8,66,29.71,10.0,South,9.2,-,N/A,,Clear,180,2013-02-26 06:56:00
10:16 PM,5.0,-9999,N/A,29.71,10.0,South,12.7,-,N/A,,Mostly Cloudy,170,2013-02-26 07:16:00
10:36 PM,6.8,-23.8,23,29.72,10.0,South,10.4,-,N/A,,Overcast,180,2013-02-26 07:36:00
10:56 PM,6.8,-18.4,31,29.72,10.0,South,13.8,-,N/A,,Mostly Cloudy,180,2013-02-26 07:56:00
11:16 PM,6.8,-14.8,37,29.72,10.0,South,11.5,-,N/A,,Overcast,170,2013-02-26 08:16:00
11:36 PM,6.8,-13.0,40,29.73,10.0,South,9.2,-,N/A,,Overcast,180,2013-02-26 08:36:00
11:56 PM,6.8,-11.2,44,29.72,10.0,SW,8.1,-,N/A,,Overcast,220,2013-02-26 08:56:00